Location: Bron Breck
(40.6655°N, 111.8083°W)
Time: 19:59:30
(UTC+00:00)

N. Korean satellite - Pass Details

Date: 06 March 2021
Orbit: 452 x 499 km, 97.2° (Epoch: 15 April)

Event Time Altitude Azimuth Distance (km) Brightness Sun altitude
Rises 11:56:57 0° 31° (NNE) 2,539 10.8 -22.7°
Reaches altitude 10° 11:59:37 10° 53° (NE) 1,664 10.2 -22.2°
Maximum altitude 12:01:57 16° 94° (E) 1,320 9.7 -21.8°
Drops below altitude 10° 12:04:17 10° 134° (SE) 1,672 9.7 -21.3°
Sets 12:06:58 0° 156° (SSE) 2,556 10.4 -20.8°
